Lihue, HI

4:39 PM HST on August 16, 2017 (GMT -1000)
Lihue

Weather History for PHLI - July, 2012

Change the Weather History Date:

Monday, July 2, 2012

  Actual Average Record
Temperature  
Mean Temperature 78 °F 79 °F  
Max Temperature 83 °F 84 °F 88 °F (1981)
Min Temperature 72 °F 74 °F 68 °F (1968)
Degree Days  
Heating Degree Days 0 0  
Month to date heating degree days 0 0  
Since 1 June heating degree days 0 0  
Since 1 July heating degree days 0 0  
Cooling Degree Days 13 14  
Month to date cooling degree days 26 28  
Year to date cooling degree days 1822 1661  
Since 1 June cooling degree days 416 422  
Growing Degree Days 28 (Base 50)    
Moisture  
Dew Point 67 °F    
Average Humidity 71    
Maximum Humidity 84    
Minimum Humidity 58    
Precipitation  
Precipitation T in 0.06 in 0.60 in (1978)
Month to date precipitation 0.01 0.11  
Year to date precipitation 33.23 17.56  
Snow  
Snow 0.00 in - - ()
Month to date snowfall 0.0  
Since 1 June snowfall 0.0  
Since 1 July snowfall 0.0  
Snow Depth 0.00 in    
Sea Level Pressure  
Sea Level Pressure 30.05 in    
Wind  
Wind Speed 12 mph (ENE)    
Max Wind Speed 21 mph    
Max Gust Speed 24 mph    
Visibility 10 miles    
Events Rain    
T = Trace of Precipitation, MM = Missing Value Source: NWS Daily Summary

Daily Weather History Graph

Daily Weather History Graph

Search for Another Location

Airport or City:

Trip Planner

Search our weather history database for the weather conditions in past years. The results will help you decide how hot, cold, wet, or windy it might be!

Date:

Astronomy

Jul. 02, 2012 Rise Set
Actual Time 5:58 AM HST 7:24 PM HST
Civil Twilight 5:33 AM HST 7:49 PM HST
Nautical Twilight 5:03 AM HST 8:19 PM HST
Astronomical Twilight 4:32 AM HST 8:50 PM HST
Moon 6:42 PM HST (7/2) 4:55 AM HST (7/2)
Length of Visible Light 14h 16m
Length of Day
13h 26m
Waxing Gibbous, 99% of the Moon is Illuminated
Jul 2
Waxing Gibbous
Jul 3
Full
Jul 10
Last Quarter
Jul 18
New
Jul 25
First Quarter

Hourly Weather History & Observations

Time (HST) Temp. Heat Index Dew Point Humidity Pressure Visibility Wind Dir Wind Speed Gust Speed Precip Events Conditions
12:53 AM 75.0 °F - 68.0 °F 79% 30.03 in 10.0 mi ENE 10.4 mph - N/A   Partly Cloudy
1:53 AM 75.0 °F - 68.0 °F 79% 30.01 in 10.0 mi ENE 11.5 mph - N/A   Mostly Cloudy
2:21 AM 75.2 °F - 68.0 °F 78% 30.02 in 10.0 mi ENE 12.7 mph - N/A   Mostly Cloudy
2:53 AM 75.0 °F - 68.0 °F 79% 30.01 in 10.0 mi ENE 10.4 mph - N/A   Overcast
3:53 AM 73.0 °F - 68.0 °F 84% 30.01 in 7.0 mi ENE 9.2 mph 24.2 mph 0.00 in Rain Light Rain
4:53 AM 73.9 °F - 68.0 °F 82% 30.01 in 10.0 mi ENE 12.7 mph - 0.00 in   Overcast
5:49 AM 75.2 °F - 68.0 °F 78% 30.03 in 10.0 mi ENE 10.4 mph - N/A   Overcast
5:53 AM 75.0 °F - 68.0 °F 79% 30.02 in 10.0 mi ENE 12.7 mph - N/A   Mostly Cloudy
6:27 AM 75.2 °F - 66.2 °F 73% 30.03 in 10.0 mi ENE 12.7 mph - N/A   Scattered Clouds
6:39 AM 75.2 °F - 68.0 °F 78% 30.04 in 10.0 mi East 12.7 mph - N/A   Mostly Cloudy
6:53 AM 75.9 °F - 66.0 °F 71% 30.03 in 10.0 mi ENE 10.4 mph - N/A   Scattered Clouds
7:51 AM 77.0 °F - 66.2 °F 69% 30.06 in 10.0 mi ENE 11.5 mph - N/A   Overcast
7:53 AM 77.0 °F - 66.9 °F 71% 30.05 in 10.0 mi ENE 15.0 mph - N/A   Overcast
8:08 AM 77.0 °F - 68.0 °F 74% 30.06 in 10.0 mi ENE 13.8 mph - N/A   Overcast
8:53 AM 78.1 °F - 69.1 °F 74% 30.06 in 10.0 mi NE 12.7 mph - N/A   Overcast
9:19 AM 78.8 °F - 69.8 °F 74% 30.07 in 10.0 mi ENE 9.2 mph - N/A   Overcast
9:53 AM 79.0 °F - 68.0 °F 69% 30.07 in 10.0 mi NE 10.4 mph - N/A   Mostly Cloudy
10:07 AM 80.6 °F 83.9 °F 69.8 °F 70% 30.08 in 10.0 mi ENE 10.4 mph - N/A   Mostly Cloudy
10:46 AM 80.6 °F 82.7 °F 66.2 °F 61% 30.08 in 10.0 mi ENE 13.8 mph - N/A   Mostly Cloudy
10:53 AM 80.1 °F 82.3 °F 66.9 °F 64% 30.08 in 10.0 mi ENE 13.8 mph - N/A   Mostly Cloudy
11:53 AM 82.0 °F 84.1 °F 66.0 °F 58% 30.07 in 10.0 mi ENE 13.8 mph 21.9 mph N/A   Partly Cloudy
12:53 PM 82.0 °F 84.5 °F 66.9 °F 60% 30.07 in 10.0 mi ENE 15.0 mph - N/A   Scattered Clouds
1:53 PM 82.9 °F 85.4 °F 66.9 °F 58% 30.06 in 10.0 mi NE 12.7 mph - N/A   Partly Cloudy
2:53 PM 81.0 °F 83.3 °F 66.9 °F 62% 30.05 in 10.0 mi NE 12.7 mph - N/A   Scattered Clouds
3:53 PM 80.1 °F 82.3 °F 66.9 °F 64% 30.04 in 10.0 mi NE 15.0 mph - N/A   Scattered Clouds
4:53 PM 80.1 °F 82.1 °F 66.0 °F 62% 30.03 in 10.0 mi NE 15.0 mph - N/A   Partly Cloudy
5:28 PM 78.8 °F - 66.2 °F 65% 30.04 in 10.0 mi NE 11.5 mph - N/A   Mostly Cloudy
5:53 PM 78.1 °F - 66.9 °F 68% 30.04 in 10.0 mi NE 12.7 mph - N/A   Mostly Cloudy
6:53 PM 75.9 °F - 66.9 °F 74% 30.05 in 10.0 mi NE 13.8 mph - N/A   Mostly Cloudy
7:53 PM 75.0 °F - 66.9 °F 76% 30.06 in 10.0 mi ENE 18.4 mph - N/A   Partly Cloudy
8:53 PM 75.9 °F - 66.9 °F 74% 30.08 in 10.0 mi ENE 15.0 mph - N/A   Scattered Clouds
9:53 PM 75.0 °F - 66.9 °F 76% 30.09 in 10.0 mi ENE 17.3 mph - N/A   Scattered Clouds
10:53 PM 75.9 °F - 66.9 °F 74% 30.10 in 10.0 mi ENE 16.1 mph - N/A   Overcast
11:53 PM 75.9 °F - 66.9 °F 74% 30.10 in 10.0 mi NE 17.3 mph 23.0 mph N/A   Overcast